Year,Month,Day,Hour,Minute,Value (Times are PST for temperature in C)
2008,01,25,00,00,-4.50
2008,01,25,00,01,-4.50
2008,01,25,00,02,-4.50
2008,01,25,00,03,-4.50
2008,01,25,00,04,-4.50
2008,01,25,00,05,-4.50
2008,01,25,00,06,-4.50
2008,01,25,00,07,-4.50
2008,01,25,00,08,-4.50
2008,01,25,00,09,-4.50
2008,01,25,00,10,-4.60
2008,01,25,00,11,-4.60
2008,01,25,00,12,-4.60
2008,01,25,00,13,-4.60
2008,01,25,00,14,-4.60
2008,01,25,00,15,-4.60
2008,01,25,00,16,-4.60
2008,01,25,00,17,-4.60
2008,01,25,00,18,-4.70
2008,01,25,00,19,-4.70
2008,01,25,00,20,-4.70
2008,01,25,00,21,-4.70
2008,01,25,00,22,-4.70
2008,01,25,00,23,-4.70
2008,01,25,00,24,-4.70
2008,01,25,00,25,-4.70
2008,01,25,00,26,-4.70
2008,01,25,00,27,-4.70
2008,01,25,00,28,-4.70
2008,01,25,00,29,-4.70
2008,01,25,00,30,-4.80
2008,01,25,00,31,-4.80
2008,01,25,00,32,-4.80
2008,01,25,00,33,-4.80
2008,01,25,00,34,-4.80
2008,01,25,00,35,-4.80
2008,01,25,00,36,-4.80
2008,01,25,00,37,-4.80
2008,01,25,00,38,-4.80
2008,01,25,00,39,-4.80
2008,01,25,00,40,-4.80
2008,01,25,00,41,-4.80
2008,01,25,00,42,-4.80
2008,01,25,00,43,-4.80
2008,01,25,00,44,-4.80
2008,01,25,00,45,-4.80
2008,01,25,00,46,-4.90
2008,01,25,00,47,-4.90
2008,01,25,00,48,-4.90
2008,01,25,00,49,-4.90
2008,01,25,00,50,-4.90
2008,01,25,00,51,-4.90
2008,01,25,00,52,-4.90
2008,01,25,00,53,-4.90
2008,01,25,00,54,-4.90
2008,01,25,00,55,-4.90
2008,01,25,00,56,-4.90
2008,01,25,00,57,-5.00
2008,01,25,00,58,-4.90
2008,01,25,00,59,-5.00
2008,01,25,01,00,-5.00
2008,01,25,01,01,-5.00
2008,01,25,01,02,-5.00
2008,01,25,01,03,-5.00
2008,01,25,01,04,-5.00
2008,01,25,01,05,-5.10
2008,01,25,01,06,-5.10
2008,01,25,01,07,-5.10
2008,01,25,01,08,-5.10
2008,01,25,01,09,-5.10
2008,01,25,01,10,-5.10
2008,01,25,01,11,-5.10
2008,01,25,01,12,-5.10
2008,01,25,01,13,-5.10
2008,01,25,01,14,-5.10
2008,01,25,01,15,-5.10
2008,01,25,01,16,-5.20
2008,01,25,01,17,-5.20
2008,01,25,01,18,-5.20
2008,01,25,01,19,-5.20
2008,01,25,01,20,-5.20
2008,01,25,01,21,-5.20
2008,01,25,01,22,-5.20
2008,01,25,01,23,-5.20
2008,01,25,01,24,-5.20
2008,01,25,01,25,-5.20
2008,01,25,01,26,-5.20
2008,01,25,01,27,-5.20
2008,01,25,01,28,-5.20
2008,01,25,01,29,-5.20
2008,01,25,01,30,-5.20
2008,01,25,01,31,-5.30
2008,01,25,01,32,-5.30
2008,01,25,01,33,-5.30
2008,01,25,01,34,-5.30
2008,01,25,01,35,-5.30
2008,01,25,01,36,-5.30
2008,01,25,01,37,-5.30
2008,01,25,01,38,-5.30
2008,01,25,01,39,-5.30
2008,01,25,01,40,-5.30
2008,01,25,01,41,-5.30
2008,01,25,01,42,-5.30
2008,01,25,01,43,-5.30
2008,01,25,01,44,-5.30
2008,01,25,01,45,-5.30
2008,01,25,01,46,-5.30
2008,01,25,01,47,-5.40
2008,01,25,01,48,-5.40
2008,01,25,01,49,-5.40
2008,01,25,01,50,-5.40
2008,01,25,01,51,-5.40
2008,01,25,01,52,-5.40
2008,01,25,01,53,-5.40
2008,01,25,01,54,-5.40
2008,01,25,01,55,-5.40
2008,01,25,01,56,-5.40
2008,01,25,01,57,-5.40
2008,01,25,01,58,-5.50
2008,01,25,01,59,-5.50
2008,01,25,02,00,-5.50
2008,01,25,02,01,-5.50
2008,01,25,02,02,-5.50
2008,01,25,02,03,-5.50
2008,01,25,02,04,-5.60
2008,01,25,02,05,-5.60
2008,01,25,02,06,-5.60
2008,01,25,02,07,-5.60
2008,01,25,02,08,-5.60
2008,01,25,02,09,-5.60
2008,01,25,02,10,-5.60
2008,01,25,02,11,-5.60
2008,01,25,02,12,-5.70
2008,01,25,02,13,-5.70
2008,01,25,02,14,-5.70
2008,01,25,02,15,-5.70
2008,01,25,02,16,-5.70
2008,01,25,02,17,-5.70
2008,01,25,02,18,-5.70
2008,01,25,02,19,-5.70
2008,01,25,02,20,-5.70
2008,01,25,02,21,-5.70
2008,01,25,02,22,-5.70
2008,01,25,02,23,-5.70
2008,01,25,02,24,-5.70
2008,01,25,02,25,-5.70
2008,01,25,02,26,-5.70
2008,01,25,02,27,-5.70
2008,01,25,02,28,-5.70
2008,01,25,02,29,-5.80
2008,01,25,02,30,-5.80
2008,01,25,02,31,-5.80
2008,01,25,02,32,-5.80
2008,01,25,02,33,-5.80
2008,01,25,02,34,-5.80
2008,01,25,02,35,-5.80
2008,01,25,02,36,-5.80
2008,01,25,02,37,-5.80
2008,01,25,02,38,-5.80
2008,01,25,02,39,-5.80
2008,01,25,02,40,-5.80
2008,01,25,02,41,-5.80
2008,01,25,02,42,-5.80
2008,01,25,02,43,-5.80
2008,01,25,02,44,-5.80
2008,01,25,02,45,-5.80
2008,01,25,02,46,-5.80
2008,01,25,02,47,-5.80
2008,01,25,02,48,-5.80
2008,01,25,02,49,-5.80
2008,01,25,02,50,-5.80
2008,01,25,02,51,-5.80
2008,01,25,02,52,-5.80
2008,01,25,02,53,-5.80
2008,01,25,02,54,-5.80
2008,01,25,02,55,-5.80
2008,01,25,02,56,-5.90
2008,01,25,02,57,-5.90
2008,01,25,02,58,-5.90
2008,01,25,02,59,-5.90
2008,01,25,03,00,-5.90
2008,01,25,03,01,-5.90
2008,01,25,03,02,-5.90
2008,01,25,03,03,-5.90
2008,01,25,03,04,-5.90
2008,01,25,03,05,-5.90
2008,01,25,03,06,-5.90
2008,01,25,03,07,-5.90
2008,01,25,03,08,-5.90
2008,01,25,03,09,-5.90
2008,01,25,03,10,-5.90
2008,01,25,03,11,-5.90
2008,01,25,03,12,-5.90
2008,01,25,03,13,-5.80
2008,01,25,03,14,-5.90
2008,01,25,03,15,-5.80
2008,01,25,03,16,-5.80
2008,01,25,03,17,-5.80
2008,01,25,03,18,-5.80
2008,01,25,03,19,-5.80
2008,01,25,03,20,-5.80
2008,01,25,03,21,-5.90
2008,01,25,03,22,-5.90
2008,01,25,03,23,-5.90
2008,01,25,03,24,-5.90
2008,01,25,03,25,-5.90
2008,01,25,03,26,-5.90
2008,01,25,03,27,-5.90
2008,01,25,03,28,-5.90
2008,01,25,03,29,-5.90
2008,01,25,03,30,-6.00
2008,01,25,03,31,-6.00
2008,01,25,03,32,-6.00
2008,01,25,03,33,-6.00
2008,01,25,03,34,-6.00
2008,01,25,03,35,-6.00
2008,01,25,03,36,-6.00
2008,01,25,03,37,-6.00
2008,01,25,03,38,-6.00
2008,01,25,03,39,-6.00
2008,01,25,03,40,-6.00
2008,01,25,03,41,-6.00
2008,01,25,03,42,-6.00
2008,01,25,03,43,-6.00
2008,01,25,03,44,-6.10
2008,01,25,03,45,-6.10
2008,01,25,03,46,-6.10
2008,01,25,03,47,-6.10
2008,01,25,03,48,-6.10
2008,01,25,03,49,-6.10
2008,01,25,03,50,-6.10
2008,01,25,03,51,-6.10
2008,01,25,03,52,-6.10
2008,01,25,03,53,-6.10
2008,01,25,03,54,-6.10
2008,01,25,03,55,-6.10
2008,01,25,03,56,-6.10
2008,01,25,03,57,-6.10
2008,01,25,03,58,-6.20
2008,01,25,03,59,-6.20
2008,01,25,04,00,-6.20
2008,01,25,04,01,-6.20
2008,01,25,04,02,-6.20
2008,01,25,04,03,-6.20
2008,01,25,04,04,-6.20
2008,01,25,04,05,-6.20
2008,01,25,04,06,-6.20
2008,01,25,04,07,-6.30
2008,01,25,04,08,-6.30
2008,01,25,04,09,-6.30
2008,01,25,04,10,-6.30
2008,01,25,04,11,-6.30
2008,01,25,04,12,-6.30
2008,01,25,04,13,-6.30
2008,01,25,04,14,-6.30
2008,01,25,04,15,-6.30
2008,01,25,04,16,-6.30
2008,01,25,04,17,-6.30
2008,01,25,04,18,-6.30
2008,01,25,04,19,-6.30
2008,01,25,04,20,-6.30
2008,01,25,04,21,-6.30
2008,01,25,04,22,-6.30
2008,01,25,04,23,-6.30
2008,01,25,04,24,-6.30
2008,01,25,04,25,-6.30
2008,01,25,04,26,-6.30
2008,01,25,04,27,-6.30
2008,01,25,04,28,-6.30
2008,01,25,04,29,-6.30
2008,01,25,04,30,-6.30
2008,01,25,04,31,-6.30
2008,01,25,04,32,-6.40
2008,01,25,04,33,-6.40
2008,01,25,04,34,-6.40
2008,01,25,04,35,-6.40
2008,01,25,04,36,-6.40
2008,01,25,04,37,-6.40
2008,01,25,04,38,-6.40
2008,01,25,04,39,-6.40
2008,01,25,04,40,-6.40
2008,01,25,04,41,-6.40
2008,01,25,04,42,-6.40
2008,01,25,04,43,-6.40
2008,01,25,04,44,-6.40
2008,01,25,04,45,-6.40
2008,01,25,04,46,-6.40
2008,01,25,04,47,-6.40
2008,01,25,04,48,-6.40
2008,01,25,04,49,-6.40
2008,01,25,04,50,-6.40
2008,01,25,04,51,-6.40
2008,01,25,04,52,-6.40
2008,01,25,04,53,-6.50
2008,01,25,04,54,-6.50
2008,01,25,04,55,-6.50
2008,01,25,04,56,-6.50
2008,01,25,04,57,-6.50
2008,01,25,04,58,-6.50
2008,01,25,04,59,-6.50
2008,01,25,05,00,-6.60
2008,01,25,05,01,-6.60
2008,01,25,05,02,-6.60
2008,01,25,05,03,-6.60
2008,01,25,05,04,-6.60
2008,01,25,05,05,-6.60
2008,01,25,05,06,-6.60
2008,01,25,05,07,-6.60
2008,01,25,05,08,-6.60
2008,01,25,05,09,-6.60
2008,01,25,05,10,-6.60
2008,01,25,05,11,-6.60
2008,01,25,05,12,-6.60
2008,01,25,05,13,-6.60
2008,01,25,05,14,-6.60
2008,01,25,05,15,-6.60
2008,01,25,05,16,-6.60
2008,01,25,05,17,-6.60
2008,01,25,05,18,-6.60
2008,01,25,05,19,-6.60
2008,01,25,05,20,-6.60
2008,01,25,05,21,-6.60
2008,01,25,05,22,-6.60
2008,01,25,05,23,-6.60
2008,01,25,05,24,-6.60
2008,01,25,05,25,-6.60
2008,01,25,05,26,-6.50
2008,01,25,05,27,-6.60
2008,01,25,05,28,-6.60
2008,01,25,05,29,-6.60
2008,01,25,05,30,-6.60
2008,01,25,05,31,-6.60
2008,01,25,05,32,-6.60
2008,01,25,05,33,-6.50
2008,01,25,05,34,-6.50
2008,01,25,05,35,-6.60
2008,01,25,05,36,-6.60
2008,01,25,05,37,-6.60
2008,01,25,05,38,-6.60
2008,01,25,05,39,-6.60
2008,01,25,05,40,-6.60
2008,01,25,05,41,-6.60
2008,01,25,05,42,-6.60
2008,01,25,05,43,-6.60
2008,01,25,05,44,-6.60
2008,01,25,05,45,-6.60
2008,01,25,05,46,-6.70
2008,01,25,05,47,-6.70
2008,01,25,05,48,-6.70
2008,01,25,05,49,-6.70
2008,01,25,05,50,-6.70
2008,01,25,05,51,-6.80
2008,01,25,05,52,-6.80
2008,01,25,05,53,-6.80
2008,01,25,05,54,-6.80
2008,01,25,05,55,-6.80
2008,01,25,05,56,-6.80
2008,01,25,05,57,-6.80
2008,01,25,05,58,-6.80
2008,01,25,05,59,-6.80
2008,01,25,06,00,-6.80
2008,01,25,06,01,-6.80
2008,01,25,06,02,-6.80
2008,01,25,06,03,-6.80
2008,01,25,06,04,-6.70
2008,01,25,06,05,-6.70
2008,01,25,06,06,-6.70
2008,01,25,06,07,-6.70
2008,01,25,06,08,-6.70
2008,01,25,06,09,-6.70
2008,01,25,06,10,-6.70
2008,01,25,06,11,-6.70
2008,01,25,06,12,-6.80
2008,01,25,06,13,-6.80
2008,01,25,06,14,-6.80
2008,01,25,06,15,-6.80
2008,01,25,06,16,-6.80
2008,01,25,06,17,-6.80
2008,01,25,06,18,-6.80
2008,01,25,06,19,-6.80
2008,01,25,06,20,-6.80
2008,01,25,06,21,-6.80
2008,01,25,06,22,-6.80
2008,01,25,06,23,-6.80
2008,01,25,06,24,-6.80
2008,01,25,06,25,-6.80
2008,01,25,06,26,-6.80
2008,01,25,06,27,-6.80
2008,01,25,06,28,-6.80
2008,01,25,06,29,-6.80
2008,01,25,06,30,-6.80
2008,01,25,06,31,-6.80
2008,01,25,06,32,-6.80
2008,01,25,06,33,-6.80
2008,01,25,06,34,-6.80
2008,01,25,06,35,-6.80
2008,01,25,06,36,-6.80
2008,01,25,06,37,-6.80
2008,01,25,06,38,-6.80
2008,01,25,06,39,-6.80
2008,01,25,06,40,-6.70
2008,01,25,06,41,-6.70
2008,01,25,06,42,-6.70
2008,01,25,06,43,-6.70
2008,01,25,06,44,-6.70
2008,01,25,06,45,-6.70
2008,01,25,06,46,-6.70
2008,01,25,06,47,-6.70
2008,01,25,06,48,-6.70
2008,01,25,06,49,-6.70
2008,01,25,06,50,-6.70
2008,01,25,06,51,-6.70
2008,01,25,06,52,-6.70
2008,01,25,06,53,-6.80
2008,01,25,06,54,-6.80
2008,01,25,06,55,-6.80
2008,01,25,06,56,-6.80
2008,01,25,06,57,-6.80
2008,01,25,06,58,-6.80
2008,01,25,06,59,-6.80
2008,01,25,07,00,-6.80
2008,01,25,07,01,-6.80
2008,01,25,07,02,-6.80
2008,01,25,07,03,-6.80
2008,01,25,07,04,-6.80
2008,01,25,07,05,-6.80
2008,01,25,07,06,-6.80
2008,01,25,07,07,-6.80
2008,01,25,07,08,-6.80
2008,01,25,07,09,-6.80
2008,01,25,07,10,-6.80
2008,01,25,07,11,-6.80
2008,01,25,07,12,-6.80
2008,01,25,07,13,-6.80
2008,01,25,07,14,-6.80
2008,01,25,07,15,-6.80
2008,01,25,07,16,-6.80
2008,01,25,07,17,-6.80
2008,01,25,07,18,-6.80
2008,01,25,07,19,-6.80
2008,01,25,07,20,-6.80
2008,01,25,07,21,-6.80
2008,01,25,07,22,-6.80
2008,01,25,07,23,-6.80
2008,01,25,07,24,-6.80
2008,01,25,07,25,-6.80
2008,01,25,07,26,-6.80
2008,01,25,07,27,-6.80
2008,01,25,07,28,-6.80
2008,01,25,07,29,-6.80
2008,01,25,07,30,-6.80
2008,01,25,07,31,-6.80
2008,01,25,07,32,-6.80
2008,01,25,07,33,-6.80
2008,01,25,07,34,-6.80
2008,01,25,07,35,-6.80
2008,01,25,07,36,-6.80
2008,01,25,07,37,-6.80
2008,01,25,07,38,-6.80
2008,01,25,07,39,-6.80
2008,01,25,07,40,-6.80
2008,01,25,07,41,-6.80
2008,01,25,07,42,-6.80
2008,01,25,07,43,-6.80
2008,01,25,07,44,-6.80
2008,01,25,07,45,-6.80
2008,01,25,07,46,-6.80
2008,01,25,07,47,-6.80
2008,01,25,07,48,-6.80
2008,01,25,07,49,-6.80
2008,01,25,07,50,-6.80
2008,01,25,07,51,-6.80
2008,01,25,07,52,-6.80
2008,01,25,07,53,-6.80
2008,01,25,07,54,-6.80
2008,01,25,07,55,-6.90
2008,01,25,07,56,-6.90
2008,01,25,07,57,-6.90
2008,01,25,07,58,-6.90
2008,01,25,07,59,-6.90
2008,01,25,08,00,-6.90
2008,01,25,08,01,-6.90
2008,01,25,08,02,-6.90
2008,01,25,08,03,-7.00
2008,01,25,08,04,-7.00
2008,01,25,08,05,-6.90
2008,01,25,08,06,-7.00
2008,01,25,08,07,-7.00
2008,01,25,08,08,-6.90
2008,01,25,08,09,-7.00
2008,01,25,08,10,-6.90
2008,01,25,08,11,-6.90
2008,01,25,08,12,-6.90
2008,01,25,08,13,-6.90
2008,01,25,08,14,-6.90
2008,01,25,08,15,-6.90
2008,01,25,08,16,-6.90
2008,01,25,08,17,-6.90
2008,01,25,08,18,-6.90
2008,01,25,08,19,-6.90
2008,01,25,08,20,-6.90
2008,01,25,08,21,-6.80
2008,01,25,08,22,-6.90
2008,01,25,08,23,-6.90
2008,01,25,08,24,-6.90
2008,01,25,08,25,-6.90
2008,01,25,08,26,-6.90
2008,01,25,08,27,-6.90
2008,01,25,08,28,-6.80
2008,01,25,08,29,-6.80
2008,01,25,08,30,-6.80
2008,01,25,08,31,-6.80
2008,01,25,08,32,-6.80
2008,01,25,08,33,-6.80
2008,01,25,08,34,-6.80
2008,01,25,08,35,-6.80
2008,01,25,08,36,-6.80
2008,01,25,08,37,-6.80
2008,01,25,08,38,-6.80
2008,01,25,08,39,-6.80
2008,01,25,08,40,-6.80
2008,01,25,08,41,-6.80
2008,01,25,08,42,-6.80
2008,01,25,08,43,-6.80
2008,01,25,08,44,-6.80
2008,01,25,08,45,-6.80
2008,01,25,08,46,-6.70
2008,01,25,08,47,-6.70
2008,01,25,08,48,-6.70
2008,01,25,08,49,-6.60
2008,01,25,08,50,-6.60
2008,01,25,08,51,-6.50
2008,01,25,08,52,-6.50
2008,01,25,08,53,-6.40
2008,01,25,08,54,-6.40
2008,01,25,08,55,-6.30
2008,01,25,08,56,-6.30
2008,01,25,08,57,-6.20
2008,01,25,08,58,-6.20
2008,01,25,08,59,-6.10
2008,01,25,09,00,-6.00
2008,01,25,09,01,-6.00
2008,01,25,09,02,-5.90
2008,01,25,09,03,-5.80
2008,01,25,09,04,-5.70
2008,01,25,09,05,-5.60
2008,01,25,09,06,-5.50
2008,01,25,09,07,-5.40
2008,01,25,09,08,-5.30
2008,01,25,09,09,-5.30
2008,01,25,09,10,-5.20
2008,01,25,09,11,-5.20
2008,01,25,09,12,-5.10
2008,01,25,09,13,-5.10
2008,01,25,09,14,-5.00
2008,01,25,09,15,-4.90
2008,01,25,09,16,-4.90
2008,01,25,09,17,-4.80
2008,01,25,09,18,-4.70
2008,01,25,09,19,-4.60
2008,01,25,09,20,-4.60
2008,01,25,09,21,-4.50
2008,01,25,09,22,-4.50
2008,01,25,09,23,-4.40
2008,01,25,09,24,-4.40
2008,01,25,09,25,-4.30
2008,01,25,09,26,-4.30
2008,01,25,09,27,-4.20
2008,01,25,09,28,-4.10
2008,01,25,09,29,-4.00
2008,01,25,09,30,-4.00
2008,01,25,09,31,-3.90
2008,01,25,09,32,-3.90
2008,01,25,09,33,-3.90
2008,01,25,09,34,-3.90
2008,01,25,09,35,-3.90
2008,01,25,09,36,-3.80
2008,01,25,09,37,-3.80
2008,01,25,09,38,-3.80
2008,01,25,09,39,-3.80
2008,01,25,09,40,-3.70
2008,01,25,09,41,-3.70
2008,01,25,09,42,-3.60
2008,01,25,09,43,-3.50
2008,01,25,09,44,-3.40
2008,01,25,09,45,-3.30
2008,01,25,09,46,-3.10
2008,01,25,09,47,-3.00
2008,01,25,09,48,-2.80
2008,01,25,09,49,-2.70
2008,01,25,09,50,-2.60
2008,01,25,09,51,-2.50
2008,01,25,09,52,-2.40
2008,01,25,09,53,-2.30
2008,01,25,09,54,-2.20
2008,01,25,09,55,-2.10
2008,01,25,09,56,-2.00
2008,01,25,09,57,-2.00
2008,01,25,09,58,-1.90
2008,01,25,09,59,-1.80
2008,01,25,10,00,-1.70
2008,01,25,10,01,-1.70
2008,01,25,10,02,-1.60
2008,01,25,10,03,-1.60
2008,01,25,10,04,-1.60
2008,01,25,10,05,-1.60
2008,01,25,10,06,-1.50
2008,01,25,10,07,-1.40
2008,01,25,10,08,-1.40
2008,01,25,10,09,-1.40
2008,01,25,10,10,-1.30
2008,01,25,10,11,-1.20
2008,01,25,10,12,-1.10
2008,01,25,10,13,-1.00
2008,01,25,10,14,-0.90
2008,01,25,10,15,-0.80
2008,01,25,10,16,-0.80
2008,01,25,10,17,-0.70
2008,01,25,10,18,-0.70
2008,01,25,10,19,-0.70
2008,01,25,10,20,-0.60
2008,01,25,10,21,-0.60
2008,01,25,10,22,-0.50
2008,01,25,10,23,-0.50
2008,01,25,10,24,-0.40
2008,01,25,10,25,-0.40
2008,01,25,10,26,-0.30
2008,01,25,10,27,-0.30
2008,01,25,10,28,-0.30
2008,01,25,10,29,-0.20
2008,01,25,10,30,-0.10
2008,01,25,10,31,-0.10
2008,01,25,10,32,-0.10
2008,01,25,10,33,-0.10
2008,01,25,10,34,-0.20
2008,01,25,10,35,-0.30
2008,01,25,10,36,-0.30
2008,01,25,10,37,-0.40
2008,01,25,10,38,-0.50
2008,01,25,10,39,-0.50
2008,01,25,10,40,-0.60
2008,01,25,10,41,-0.50
2008,01,25,10,42,-0.50
2008,01,25,10,43,-0.40
2008,01,25,10,44,-0.40
2008,01,25,10,45,-0.40
2008,01,25,10,46,-0.40
2008,01,25,10,47,-0.30
2008,01,25,10,48,-0.30
2008,01,25,10,49,-0.30
2008,01,25,10,50,-0.20
2008,01,25,10,51,-0.20
2008,01,25,10,52,-0.10
2008,01,25,10,53,0.00
2008,01,25,10,54,0.00
2008,01,25,10,55,0.10
2008,01,25,10,56,0.10
2008,01,25,10,57,0.10
2008,01,25,10,58,0.20
2008,01,25,10,59,0.20
2008,01,25,11,00,0.20
2008,01,25,11,01,0.20
2008,01,25,11,02,0.20
2008,01,25,11,03,0.30
2008,01,25,11,04,0.30
2008,01,25,11,05,0.30
2008,01,25,11,06,0.40
2008,01,25,11,07,0.40
2008,01,25,11,08,0.50
2008,01,25,11,09,0.60
2008,01,25,11,10,0.60
2008,01,25,11,11,0.70
2008,01,25,11,12,0.70
2008,01,25,11,13,0.70
2008,01,25,11,14,0.80
2008,01,25,11,15,0.80
2008,01,25,11,16,0.80
2008,01,25,11,17,0.80
2008,01,25,11,18,0.90
2008,01,25,11,19,1.00
2008,01,25,11,20,1.10
2008,01,25,11,21,1.20
2008,01,25,11,22,1.30
2008,01,25,11,23,1.30
2008,01,25,11,24,1.30
2008,01,25,11,25,1.30
2008,01,25,11,26,1.30
2008,01,25,11,27,1.30
2008,01,25,11,28,1.30
2008,01,25,11,29,1.30
2008,01,25,11,30,1.30
2008,01,25,11,31,1.30
2008,01,25,11,32,1.30
2008,01,25,11,33,1.30
2008,01,25,11,34,1.30
2008,01,25,11,35,1.50
2008,01,25,11,36,1.60
2008,01,25,11,37,1.70
2008,01,25,11,38,1.80
2008,01,25,11,39,1.80
2008,01,25,11,40,1.80
2008,01,25,11,41,1.80
2008,01,25,11,42,1.80
2008,01,25,11,43,1.80
2008,01,25,11,44,1.90
2008,01,25,11,45,1.90
2008,01,25,11,46,1.90
2008,01,25,11,47,1.90
2008,01,25,11,48,1.90
2008,01,25,11,49,2.00
2008,01,25,11,50,2.00
2008,01,25,11,51,2.00
2008,01,25,11,52,2.10
2008,01,25,11,53,2.10
2008,01,25,11,54,2.20
2008,01,25,11,55,2.20
2008,01,25,11,56,2.20
2008,01,25,11,57,2.30
2008,01,25,11,58,2.30
2008,01,25,11,59,2.30
2008,01,25,12,00,2.40
2008,01,25,12,01,2.40
2008,01,25,12,02,2.40
2008,01,25,12,03,2.40
2008,01,25,12,04,2.40
2008,01,25,12,05,2.50
2008,01,25,12,06,2.50
2008,01,25,12,07,2.60
2008,01,25,12,08,2.60
2008,01,25,12,09,2.70
2008,01,25,12,10,2.70
2008,01,25,12,11,2.80
2008,01,25,12,12,2.70
2008,01,25,12,13,2.70
2008,01,25,12,14,2.70
2008,01,25,12,15,2.70
2008,01,25,12,16,2.70
2008,01,25,12,17,2.70
2008,01,25,12,18,2.70
2008,01,25,12,19,2.70
2008,01,25,12,20,2.70
2008,01,25,12,21,2.70
2008,01,25,12,22,2.70
2008,01,25,12,23,2.70
2008,01,25,12,24,2.80
2008,01,25,12,25,2.80
2008,01,25,12,26,2.80
2008,01,25,12,27,2.80
2008,01,25,12,28,2.80
2008,01,25,12,29,2.90
2008,01,25,12,30,2.90
2008,01,25,12,31,3.00
2008,01,25,12,32,3.00
2008,01,25,12,33,3.00
2008,01,25,12,34,3.00
2008,01,25,12,35,3.00
2008,01,25,12,36,3.00
2008,01,25,12,37,3.10
2008,01,25,12,38,3.20
2008,01,25,12,39,3.20
2008,01,25,12,40,3.20
2008,01,25,12,41,3.20
2008,01,25,12,42,3.30
2008,01,25,12,43,3.30
2008,01,25,12,44,3.40
2008,01,25,12,45,3.40
2008,01,25,12,46,3.50
2008,01,25,12,47,3.50
2008,01,25,12,48,3.60
2008,01,25,12,49,3.70
2008,01,25,12,50,3.70
2008,01,25,12,51,3.70
2008,01,25,12,52,3.70
2008,01,25,12,53,3.70
2008,01,25,12,54,3.70
2008,01,25,12,55,3.80
2008,01,25,12,56,3.80
2008,01,25,12,57,3.80
2008,01,25,12,58,3.90
2008,01,25,12,59,3.90
2008,01,25,13,00,3.80
2008,01,25,13,01,3.80
2008,01,25,13,02,3.70
2008,01,25,13,03,3.70
2008,01,25,13,04,3.80
2008,01,25,13,05,3.80
2008,01,25,13,06,3.80
2008,01,25,13,07,3.80
2008,01,25,13,08,3.70
2008,01,25,13,09,3.70
2008,01,25,13,10,3.70
2008,01,25,13,11,3.80
2008,01,25,13,12,3.80
2008,01,25,13,13,3.90
2008,01,25,13,14,3.90
2008,01,25,13,15,3.90
2008,01,25,13,16,4.00
2008,01,25,13,17,4.10
2008,01,25,13,18,4.10
2008,01,25,13,19,4.10
2008,01,25,13,20,4.10
2008,01,25,13,21,4.10
2008,01,25,13,22,4.10
2008,01,25,13,23,4.10
2008,01,25,13,24,4.10
2008,01,25,13,25,4.10
2008,01,25,13,26,4.10
2008,01,25,13,27,4.10
2008,01,25,13,28,4.10
2008,01,25,13,29,4.10
2008,01,25,13,30,4.20
2008,01,25,13,31,4.20
2008,01,25,13,32,4.20
2008,01,25,13,33,4.30
2008,01,25,13,34,4.30
2008,01,25,13,35,4.40
2008,01,25,13,36,4.40
2008,01,25,13,37,4.40
2008,01,25,13,38,4.40
2008,01,25,13,39,4.30
2008,01,25,13,40,4.30
2008,01,25,13,41,4.20
2008,01,25,13,42,4.10
2008,01,25,13,43,4.10
2008,01,25,13,44,4.00
2008,01,25,13,45,4.00
2008,01,25,13,46,4.00
2008,01,25,13,47,4.00
2008,01,25,13,48,4.00
2008,01,25,13,49,4.00
2008,01,25,13,50,4.10
2008,01,25,13,51,4.10
2008,01,25,13,52,4.10
2008,01,25,13,53,4.10
2008,01,25,13,54,4.10
2008,01,25,13,55,4.10
2008,01,25,13,56,4.20
2008,01,25,13,57,4.20
2008,01,25,13,58,4.20
2008,01,25,13,59,4.20
2008,01,25,14,00,4.30
2008,01,25,14,01,4.30
2008,01,25,14,02,4.30
2008,01,25,14,03,4.30
2008,01,25,14,04,4.30
2008,01,25,14,05,4.30
2008,01,25,14,06,4.30
2008,01,25,14,07,4.30
2008,01,25,14,08,4.30
2008,01,25,14,09,4.40
2008,01,25,14,10,4.40
2008,01,25,14,11,4.50
2008,01,25,14,12,4.50
2008,01,25,14,13,4.60
2008,01,25,14,14,4.70
2008,01,25,14,15,4.70
2008,01,25,14,16,4.70
2008,01,25,14,17,4.70
2008,01,25,14,18,4.70
2008,01,25,14,19,4.70
2008,01,25,14,20,4.70
2008,01,25,14,21,4.70
2008,01,25,14,22,4.70
2008,01,25,14,23,4.70
2008,01,25,14,24,4.70
2008,01,25,14,25,4.70
2008,01,25,14,26,4.70
2008,01,25,14,27,4.70
2008,01,25,14,28,4.70
2008,01,25,14,29,4.80
2008,01,25,14,30,4.80
2008,01,25,14,31,4.80
2008,01,25,14,32,4.80
2008,01,25,14,33,4.80
2008,01,25,14,34,4.70
2008,01,25,14,35,4.70
2008,01,25,14,36,4.70
2008,01,25,14,37,4.70
2008,01,25,14,38,4.70
2008,01,25,14,39,4.70
2008,01,25,14,40,4.70
2008,01,25,14,41,4.80
2008,01,25,14,42,4.80
2008,01,25,14,43,4.80
2008,01,25,14,44,4.80
2008,01,25,14,45,4.80
2008,01,25,14,46,4.80
2008,01,25,14,47,4.80
2008,01,25,14,48,4.80
2008,01,25,14,49,4.80
2008,01,25,14,50,4.80
2008,01,25,14,51,4.80
2008,01,25,14,52,4.80
2008,01,25,14,53,4.80
2008,01,25,14,54,4.80
2008,01,25,14,55,4.80
2008,01,25,14,56,4.80
2008,01,25,14,57,4.90
2008,01,25,14,58,4.90
2008,01,25,14,59,4.90
2008,01,25,15,00,4.90
2008,01,25,15,01,4.90
2008,01,25,15,02,4.80
2008,01,25,15,03,4.80
2008,01,25,15,04,4.70
2008,01,25,15,05,4.60
2008,01,25,15,06,4.60
2008,01,25,15,07,4.60
2008,01,25,15,08,4.50
2008,01,25,15,09,4.50
2008,01,25,15,10,4.40
2008,01,25,15,11,4.30
2008,01,25,15,12,4.30
2008,01,25,15,13,4.30
2008,01,25,15,14,4.30
2008,01,25,15,15,4.30
2008,01,25,15,16,4.30
2008,01,25,15,17,4.30
2008,01,25,15,18,4.40
2008,01,25,15,19,4.40
2008,01,25,15,20,4.40
2008,01,25,15,21,4.40
2008,01,25,15,22,4.40
2008,01,25,15,23,4.40
2008,01,25,15,24,4.40
2008,01,25,15,25,4.40
2008,01,25,15,26,4.40
2008,01,25,15,27,4.30
2008,01,25,15,28,4.30
2008,01,25,15,29,4.20
2008,01,25,15,30,4.20
2008,01,25,15,31,4.20
2008,01,25,15,32,4.10
2008,01,25,15,33,4.10
2008,01,25,15,34,4.10
2008,01,25,15,35,4.10
2008,01,25,15,36,4.00
2008,01,25,15,37,4.00
2008,01,25,15,38,4.00
2008,01,25,15,39,3.90
2008,01,25,15,40,3.90
2008,01,25,15,41,3.90
2008,01,25,15,42,3.90
2008,01,25,15,43,3.90
2008,01,25,15,44,3.90
2008,01,25,15,45,3.80
2008,01,25,15,46,3.80
2008,01,25,15,47,3.80
2008,01,25,15,48,3.80
2008,01,25,15,49,3.70
2008,01,25,15,50,3.70
2008,01,25,15,51,3.70
2008,01,25,15,52,3.60
2008,01,25,15,53,3.60
2008,01,25,15,54,3.60
2008,01,25,15,55,3.60
2008,01,25,15,56,3.60
2008,01,25,15,57,3.50
2008,01,25,15,58,3.50
2008,01,25,15,59,3.50
2008,01,25,16,00,3.50
2008,01,25,16,01,3.50
2008,01,25,16,02,3.40
2008,01,25,16,03,3.40
2008,01,25,16,04,3.40
2008,01,25,16,05,3.40
2008,01,25,16,06,3.30
2008,01,25,16,07,3.30
2008,01,25,16,08,3.30
2008,01,25,16,09,3.30
2008,01,25,16,10,3.20
2008,01,25,16,11,3.20
2008,01,25,16,12,3.20
2008,01,25,16,13,3.10
2008,01,25,16,14,3.10
2008,01,25,16,15,3.10
2008,01,25,16,16,3.00
2008,01,25,16,17,3.00
2008,01,25,16,18,2.90
2008,01,25,16,19,2.90
2008,01,25,16,20,2.80
2008,01,25,16,21,2.80
2008,01,25,16,22,2.80
2008,01,25,16,23,2.70
2008,01,25,16,24,2.70
2008,01,25,16,25,2.60
2008,01,25,16,26,2.60
2008,01,25,16,27,2.50
2008,01,25,16,28,2.50
2008,01,25,16,29,2.40
2008,01,25,16,30,2.40
2008,01,25,16,31,2.30
2008,01,25,16,32,2.30
2008,01,25,16,33,2.20
2008,01,25,16,34,2.20
2008,01,25,16,35,2.10
2008,01,25,16,36,2.10
2008,01,25,16,37,2.10
2008,01,25,16,38,2.00
2008,01,25,16,39,2.00
2008,01,25,16,40,1.90
2008,01,25,16,41,1.90
2008,01,25,16,42,1.90
2008,01,25,16,43,1.90
2008,01,25,16,44,1.90
2008,01,25,16,45,1.90
2008,01,25,16,46,1.90
2008,01,25,16,47,1.90
2008,01,25,16,48,1.90
2008,01,25,16,49,1.90
2008,01,25,16,50,1.90
2008,01,25,16,51,1.90
2008,01,25,16,52,1.90
2008,01,25,16,53,1.90
2008,01,25,16,54,1.80
2008,01,25,16,55,1.80
2008,01,25,16,56,1.80
2008,01,25,16,57,1.80
2008,01,25,16,58,1.70
2008,01,25,16,59,1.70
2008,01,25,17,00,1.70
2008,01,25,17,01,1.70
2008,01,25,17,02,1.60
2008,01,25,17,03,1.50
2008,01,25,17,04,1.40
2008,01,25,17,05,1.40
2008,01,25,17,06,1.30
2008,01,25,17,07,1.30
2008,01,25,17,08,1.30
2008,01,25,17,09,1.30
2008,01,25,17,10,1.20
2008,01,25,17,11,1.20
2008,01,25,17,12,1.20
2008,01,25,17,13,1.20
2008,01,25,17,14,1.20
2008,01,25,17,15,1.20
2008,01,25,17,16,1.10
2008,01,25,17,17,1.10
2008,01,25,17,18,1.00
2008,01,25,17,19,1.00
2008,01,25,17,20,0.90
2008,01,25,17,21,0.90
2008,01,25,17,22,0.90
2008,01,25,17,23,0.80
2008,01,25,17,24,0.80
2008,01,25,17,25,0.80
2008,01,25,17,26,0.80
2008,01,25,17,27,0.70
2008,01,25,17,28,0.70
2008,01,25,17,29,0.70
2008,01,25,17,30,0.60
2008,01,25,17,31,0.60
2008,01,25,17,32,0.60
2008,01,25,17,33,0.60
2008,01,25,17,34,0.50
2008,01,25,17,35,0.50
2008,01,25,17,36,0.40
2008,01,25,17,37,0.40